Regional Weather Roundup
Issued by NWS

Home | Current Version | Previous Version | Graphics & Text | Print | Product List | Glossary On
Versions: 1 2 3 4 5 6 7 8 9 10 11 12 13 14 15 16 17 18 19 20 21 22 23 24 25 26 27 28 29 30 31 32 33 34 35 36 37 38 39 40 41 42 43 44 45 46 47 48 49 50
000
ASUS45 KABQ 051310
RWRNM
NEW MEXICO REGIONAL WEATHER ROUNDUP
NATIONAL WEATHER SERVICE ALBUQUERQUE NM
600 AM MST MON DEC 05 2016

NOTE: "FAIR" MEANS FEW OR NO CLOUDS BELOW 12,000 FEET AGL WITH NO
       SIGNIFICANT WEATHER OR OBSTRUCTIONS TO VISION.

      THIS PRODUCT IS RELEASED AS TWO VERSIONS.  ONE VERSION NEAR
      THE TOP OF THE HOUR CONTAINING PRELIMINARY DATA FROM ALBUQUERQUE
      AND OTHER STATIONS.  A FINAL VERSION WITH ADDITIONAL DATA IS
      ISSUED ABOUT 10 MINUTES AFTER THE HOUR.

NMZ501-503-504-510>518-051400-
NORTHWEST PLATEAU/NORTHCENTRAL MOUNTAINS

CITY           SKY/WX    TMP DP  RH WIND       PRES   REMARKS
FARMINGTON     FAIR      22  18  85 E7        29.91F WCI  13
LOS ALAMOS     FAIR      30  15  54 CALM      29.91S
SANTA FE       FAIR      22  15  75 N10       29.90F WCI  11
TAOS           FAIR      16   3  57 CALM      29.91F
ANGEL FIRE     FAIR      31  12  45 NW8       29.87R WCI  23

$$
NMZ402-403-502-505>509-051400-
WESTCENTRAL MOUNTAINS/SOUTHWEST MOUNTAINS

CITY           SKY/WX    TMP DP  RH WIND       PRES   REMARKS
GALLUP         FAIR      15  12  88 CALM      29.94F
GRANTS         FAIR      15  12  90 NW3       29.96S
SILVER CITY    FAIR      29  25  84 NW10      29.96S WCI  20

$$
NMZ407-409-411-412-051400-
SOUTHERN DESERTS

CITY           SKY/WX    TMP DP  RH WIND       PRES   REMARKS
DEMING         FAIR      32  26  78 W9        29.95F WCI  24
LAS CRUCES     FAIR      29  21  74 CALM      29.96S
HOLLOMAN AFB   FAIR      24  18  78 E5        29.97F WCI  18
T OR C         FAIR      28  17  63 W6        29.92F WCI  22

$$
NMZ519>523-051400-
CENTRAL VALLEYS/CENTRAL HIGHLANDS

CITY           SKY/WX    TMP DP  RH WIND       PRES   REMARKS
ALBUQUERQUE    FAIR      27  13  55 SE5       29.93F WCI  22
DOUBLE EAGLE   CLEAR     25  12  58 CALM      29.93F
MORIARTY ARPT  FAIR      15   9  78 NE6       29.90F WCI   6
CLINES CORNERS FAIR      25   8  48 W14       29.88S WCI  13
BELEN          FAIR      22  17  79 CALM      29.94R
SOCORRO        FAIR      23  15  72 CALM      29.94S

$$
NMZ524>526-539-540-051400-
SOUTHCENTRAL MOUNTAINS

CITY           SKY/WX    TMP DP  RH WIND       PRES   REMARKS
RUIDOSO        FAIR      30  14  51 SW3       29.92F

$$
NMZ527>531-051400-
NORTHEAST HIGHLANDS/NORTHEAST PLAINS

CITY           SKY/WX    TMP DP  RH WIND       PRES   REMARKS
LAS VEGAS      FAIR      34  14  43 SW15G24   29.77F WCI  24
RATON          FAIR      20  12  71 N9        29.72F WCI   9
CLAYTON        FAIR      42  24  49 W18G26    29.65F

$$
NMZ532>537-051400-
EASTCENTRAL PLAINS

CITY           SKY/WX    TMP DP  RH WIND       PRES   REMARKS
TUCUMCARI      FAIR      36  22  56 SW18      29.73F WCI  26
CANNON AFB     FAIR      32  32 100 SW10      29.82F WCI  24
CLOVIS AIRPORT FAIR      30  25  80 W16       29.81F WCI  19

$$
NMZ028-029-538-051400-
SOUTHEAST PLAINS

CITY           SKY/WX    TMP DP  RH WIND       PRES   REMARKS
ROSWELL        FAIR      25  22  88 CALM      29.86F
ARTESIA        FOG       25  25 100 S5        29.87F VSB 1/4 WCI  19
CARLSBAD       FAIR      25  25 100 CALM      29.87F FOG
HOBBS          CLEAR     28  28 100 W7        29.87F WCI  21


$$




USA.gov is the U.S. government's official web portal to all federal, state and local government web resources and services.